Wind_Speed
23 23 25 23 23 23 20 20 20 20 23 25 27 28 28 28 28 29 34 35 39 41 45 51 55 57 60 58 65 68 70 70 64 58 52 58 52 58 45 39 33 34 34 36 34
27 22 22 22 21 21 20 20 20 19 20 21 23 25 26 27 28 31 33 34 39 43 46 46 46 48 52 47 59 72 77 73 65 58 51 57 58 43 45 42 30 32 32 33 32
29 23 20 22 21 21 19 19 18 19 18 21 22 23 24 25 27 31 31 32 37 37 35 32 34 36 40 40 53 66 76 67 60 57 54 56 61 49 52 47 47 41 34 37 38
31 27 23 20 20 18 20 17 19 18 18 19 20 21 23 24 24 27 28 29 27 28 29 28 26 26 31 36 47 56 63 61 54 55 56 58 57 50 47 51 51 42 37 38 43
29 27 25 25 21 18 18 18 18 19 18 17 20 22 23 21 22 23 23 22 22 26 22 19 14 13 16 21 35 42 44 48 47 52 53 54 49 46 54 45 49 47 46 40 37
28 28 27 26 26 19 16 19 18 17 16 16 16 21 21 17 21 18 19 16 20 19 14 11 12 13 17 22 27 25 35 37 38 45 51 51 51 49 50 36 36 32 32 33 33
28 28 28 28 25 24 15 14 12 15 16 15 15 18 20 14 17 15 14 14 16 13 11 14 14 12 16 23 19 14 27 30 35 36 45 50 51 55 43 38 42 41 40 37 38
28 28 29 28 28 23 17 10 10 13 15 14 15 15 19 15 14 13 13 14 10 12 11 16 19 20 20 26 28 25 26 30 33 33 37 40 38 33 28 27 30 33 34 34 35
30 30 28 30 28 28 22 15 14 14 15 15 14 13 19 16 13 13 15 13 10 12 11 13 17 23 29 31 32 31 29 35 35 41 45 38 31 25 25 27 26 30 32 33 33
33 31 29 29 28 25 25 20 16 15 12 14 13 12 18 16 14 14 14 13 11 12 12 13 12 17 26 33 32 24 13 16 13 12 23 28 23 25 24 27 29 32 33 33 31
33 34 31 30 31 28 23 24 18 16 13 12 12 10 14 17 14 15 13 16 14 14 17 15 13 18 16 12 12 25 25 27 22 21 25 27 24 25 26 31 31 31 29 28 29
34 33 33 30 29 30 24 21 22 17 16 12 12 9 10 23 18 16 16 15 16 17 19 17 15 18 19 18 17 26 25 28 24 13 23 18 20 20 29 28 17 22 28 28 29
35 33 34 32 29 29 27 22 20 17 14 13 11 10 10 11 21 17 18 17 17 21 20 20 24 23 20 23 28 28 28 26 23 22 28 27 24 29 32 23 23 27 26 28 32
36 33 32 32 31 29 28 24 21 18 13 11 10 9 9 12 18 23 18 19 18 18 22 24 25 26 29 30 30 28 31 31 35 34 30 33 35 37 29 18 25 26 30 34 36
35 34 32 33 31 30 23 23 21 18 12 9 9 6 10 12 13 16 21 20 20 23 22 26 31 31 31 31 31 35 37 35 36 40 40 37 36 30 20 25 32 31 33 33 34
34 33 31 32 31 28 22 20 17 18 13 8 13 12 11 11 10 13 26 26 21 22 21 23 28 29 31 31 30 29 33 32 32 39 46 39 42 41 34 38 36 34 34 34 33
34 32 30 31 31 28 23 18 16 16 16 13 11 6 3 6 8 10 14 15 30 27 21 25 29 31 31 31 31 31 30 31 34 35 32 34 47 44 31 32 33 33 33 34 34
34 31 31 29 30 28 24 18 16 16 13 16 14 11 9 7 10 11 7 7 8 15 27 31 28 32 36 33 32 32 29 28 31 31 28 29 33 30 29 31 35 35 35 35 35
35 29 30 30 28 27 23 18 17 18 17 13 13 18 15 11 9 11 12 10 8 11 11 17 31 34 34 34 33 34 32 33 31 24 25 26 27 31 33 30 34 36 38 38 40
34 31 28 30 29 26 23 20 20 21 20 19 20 22 21 16 14 16 21 14 18 16 14 11 14 32 36 38 37 33 37 39 37 35 33 27 26 30 35 37 40 42 42 42 44
35 32 30 31 29 27 22 23 24 21 17 22 20 18 20 20 17 21 25 23 23 22 22 19 15 18 26 30 34 36 36 34 33 34 34 34 32 35 36 41 45 47 48 48 51
34 34 33 31 29 29 27 24 25 23 21 20 19 18 18 19 21 23 24 28 24 21 23 24 22 17 17 25 32 32 32 35 37 37 40 40 37 30 35 39 43 43 44 46 46
35 33 35 33 30 31 29 25 25 24 21 18 19 20 19 20 21 22 25 27 25 25 26 28 26 20 19 22 28 32 31 33 38 38 38 39 36 28 37 41 46 46 49 51 52
33 35 34 33 31 30 30 28 27 21 20 17 17 18 18 21 22 22 25 27 24 23 23 22 22 20 23 26 28 31 31 33 35 36 34 33 33 27 31 34 40 42 45 49 48
31 32 29 32 30 29 28 30 27 30 24 19 17 17 15 18 21 21 24 24 24 26 25 24 22 25 24 25 31 29 31 28 32 31 29 21 29 25 29 30 36 42 46 43 44
29 26 25 30 31 30 28 29 32 31 28 24 20 20 18 21 20 21 24 24 25 24 26 25 24 26 26 26 29 32 29 30 33 29 28 37 29 35 36 34 34 33 34 37 38
23 28 31 31 30 32 31 35 37 34 32 28 25 23 23 20 21 23 22 23 25 25 25 26 26 27 23 26 29 29 21 29 35 39 36 37 38 37 37 37 36 36 37 38 36
Wind_Direction
303 297 298 299 297 294 292 287 283 276 267 259 258 259 262 264 268 273 273 274 278 277 278 276 272 267 260 243 236 233 230 228 222 214 213 222 214 210 199 211 207 214 221 230 225
314 296 294 297 302 296 288 290 287 287 267 262 261 261 264 268 273 276 278 282 285 287 285 279 272 264 257 242 231 228 228 225 220 213 210 220 215 211 192 204 199 225 217 223 234
344 322 298 297 298 303 290 290 293 289 277 263 265 264 265 270 275 278 283 287 293 291 284 280 273 264 255 239 230 223 225 221 217 210 211 218 220 210 200 203 205 209 221 224 231
353 351 336 315 300 295 294 289 297 295 287 272 267 265 267 271 278 282 287 295 291 287 290 289 281 268 251 240 226 220 220 215 208 207 214 213 213 216 219 206 211 213 218 230 241
351 348 342 335 318 298 288 284 292 296 295 283 274 267 265 269 275 281 286 293 286 294 302 295 268 247 233 226 213 214 214 211 203 205 217 221 221 222 223 210 217 222 229 232 244
349 345 344 340 335 319 292 278 279 287 297 296 288 275 263 268 275 282 288 279 287 301 288 240 213 199 196 195 201 193 201 199 202 206 213 227 229 228 220 216 217 211 213 220 231
343 340 338 338 339 331 307 285 270 283 294 297 294 284 258 254 273 277 277 269 284 288 248 208 189 175 186 185 182 187 207 201 201 202 212 222 230 235 240 249 249 251 255 259 265
339 340 337 334 336 335 320 284 266 281 291 294 289 283 255 253 261 266 258 264 274 264 230 213 184 180 176 172 178 179 186 198 195 197 205 216 227 234 233 234 236 239 244 244 246
332 334 337 332 328 333 330 300 270 276 292 292 288 282 248 255 252 258 247 253 249 240 220 243 227 181 183 186 185 190 189 199 198 199 207 219 225 238 236 231 231 237 239 240 237
328 329 334 330 327 318 326 318 287 276 283 283 281 279 255 251 245 248 243 240 238 235 214 224 234 224 207 189 188 187 141 126 155 185 208 219 222 221 225 231 233 235 237 239 239
324 324 328 331 328 324 314 313 301 281 269 268 271 274 240 238 241 238 242 235 230 230 215 219 224 222 213 193 173 161 164 151 165 179 208 211 217 217 229 230 231 235 239 240 241
319 319 322 327 328 327 319 307 305 288 276 264 263 258 251 238 244 236 231 233 223 222 222 204 205 203 201 186 193 180 180 171 172 190 221 207 223 229 226 240 249 244 242 242 244
314 314 316 320 325 325 317 309 304 299 279 263 260 256 249 254 227 231 226 224 218 220 216 218 202 206 197 192 199 199 203 181 177 196 219 214 213 226 238 235 239 258 262 260 255
310 310 309 311 317 323 320 310 301 299 283 269 246 234 236 228 223 231 226 222 220 217 216 202 208 202 210 217 222 211 212 199 189 200 210 213 211 223 242 266 273 261 252 250 254
305 305 304 304 311 318 315 308 300 294 279 257 212 245 248 238 236 222 224 221 216 222 220 212 215 217 218 216 218 222 231 229 206 208 211 225 237 241 250 256 255 249 251 257 261
300 299 297 297 302 310 309 303 301 288 260 218 235 266 239 239 233 233 223 221 224 225 214 235 232 227 223 219 213 228 230 227 234 227 227 228 240 248 250 254 248 250 255 261 264
295 294 293 290 295 301 302 293 290 270 265 256 238 257 276 248 243 239 239 222 230 229 222 209 227 231 229 230 230 229 232 235 234 236 234 226 236 247 247 251 254 255 253 255 257
290 289 287 282 285 293 295 284 274 260 245 265 266 270 260 258 197 206 225 214 241 228 233 227 219 222 230 231 237 243 245 243 243 242 244 238 241 246 242 238 242 243 250 255 264
284 282 280 276 276 285 284 270 259 242 247 251 260 264 269 247 247 256 233 241 242 232 239 235 221 231 235 235 232 238 251 255 254 253 249 245 250 250 254 251 256 253 250 253 258
279 277 274 271 268 272 273 268 253 250 245 247 245 254 259 261 252 246 259 266 271 282 264 237 232 233 240 243 245 245 254 256 263 261 250 244 240 243 249 254 255 254 251 254 262
274 271 267 266 264 265 266 259 257 245 237 239 242 244 255 261 258 254 250 262 266 273 273 278 278 246 245 241 244 248 252 259 262 256 253 253 254 263 259 256 258 261 262 263 263
267 266 263 258 257 254 253 252 257 250 232 230 238 240 249 258 265 258 255 261 270 271 263 277 280 274 258 253 255 253 255 252 250 253 255 253 255 256 253 257 261 264 264 262 263
267 258 258 260 253 249 247 249 252 236 240 230 235 241 244 248 251 256 261 256 258 261 261 268 270 270 267 256 254 255 252 246 248 248 248 253 256 255 251 248 256 258 260 263 266
263 257 253 257 252 252 242 247 253 229 245 242 247 244 250 251 248 253 259 265 268 265 265 259 266 273 269 265 256 256 250 246 249 250 251 253 263 255 246 244 252 256 258 261 268
267 256 250 255 251 250 241 240 243 245 246 245 245 254 257 257 260 258 256 264 263 262 264 261 265 270 273 265 262 253 245 234 243 247 258 264 259 255 258 256 252 256 258 269 272
261 256 247 250 245 243 231 235 237 241 243 244 254 251 253 260 262 259 259 264 266 262 264 265 269 276 278 269 262 258 250 243 236 243 252 250 252 261 263 265 268 274 275 275 280
251 241 249 246 243 245 242 236 248 241 242 244 256 266 263 263 265 262 260 258 262 263 263 266 270 278 276 263 265 269 262 247 239 243 249 247 252 265 275 279 281 283 280 279 275
Height
5792 5791 5790 5788 5787 5786 5784 5782 5780 5777 5777 5778 5779 5780 5780 5781 5780 5780 5777 5778 5775 5773 5771 5768 5765 5764 5766 5776 5779 5786 5786 5798 5812 5827 5839 5832 5840 5841 5841 5841 5849 5848 5854 5856 5861
5787 5784 5783 5782 5780 5780 5779 5777 5775 5772 5771 5771 5771 5772 5773 5773 5773 5771 5770 5767 5763 5761 5757 5753 5749 5746 5746 5756 5760 5765 5771 5787 5804 5819 5827 5819 5831 5834 5827 5833 5841 5841 5846 5851 5854
5784 5779 5777 5776 5775 5773 5773 5772 5770 5768 5765 5764 5764 5765 5766 5766 5766 5762 5762 5758 5754 5750 5746 5742 5739 5738 5737 5744 5745 5750 5758 5781 5798 5808 5813 5809 5822 5825 5821 5828 5834 5834 5838 5843 5846
5781 5777 5773 5771 5769 5768 5767 5766 5765 5763 5761 5759 5759 5759 5759 5759 5759 5755 5753 5751 5747 5744 5740 5735 5733 5731 5732 5734 5739 5743 5755 5772 5792 5800 5798 5797 5812 5817 5823 5826 5828 5833 5837 5838 5839
5780 5776 5772 5768 5764 5761 5761 5760 5759 5758 5756 5755 5754 5753 5753 5753 5751 5750 5748 5744 5742 5739 5734 5731 5729 5728 5729 5732 5736 5741 5756 5770 5784 5793 5793 5800 5810 5816 5816 5822 5821 5826 5831 5838 5843
5779 5775 5771 5765 5761 5757 5755 5754 5753 5752 5752 5750 5749 5748 5747 5747 5744 5744 5743 5740 5738 5736 5733 5729 5727 5728 5730 5735 5740 5750 5758 5769 5776 5786 5792 5794 5799 5798 5812 5816 5818 5820 5826 5829 5836
5777 5772 5768 5763 5758 5754 5749 5748 5747 5747 5747 5745 5744 5741 5741 5742 5739 5739 5739 5737 5736 5735 5732 5731 5731 5732 5733 5737 5744 5750 5756 5760 5767 5779 5786 5790 5789 5797 5808 5810 5812 5815 5820 5825 5827
5775 5770 5765 5760 5755 5750 5746 5743 5742 5742 5742 5740 5739 5736 5736 5737 5736 5736 5735 5734 5733 5733 5733 5733 5731 5732 5736 5740 5743 5748 5753 5758 5764 5774 5781 5783 5792 5795 5800 5801 5807 5811 5813 5818 5821
5770 5767 5762 5757 5753 5749 5745 5740 5738 5737 5736 5735 5734 5732 5731 5732 5732 5732 5732 5732 5731 5732 5734 5736 5739 5733 5734 5738 5742 5746 5750 5755 5761 5766 5773 5779 5786 5791 5792 5796 5800 5803 5806 5809 5813
5768 5763 5758 5753 5748 5743 5741 5739 5735 5732 5730 5730 5729 5730 5728 5728 5728 5728 5729 5728 5729 5731 5733 5736 5738 5739 5740 5737 5740 5748 5756 5759 5764 5770 5772 5776 5781 5784 5787 5791 5794 5797 5799 5802 5805
5764 5758 5754 5749 5745 5740 5736 5734 5733 5731 5725 5725 5725 5724 5723 5723 5724 5725 5726 5726 5727 5730 5731 5734 5737 5741 5744 5746 5748 5750 5750 5754 5759 5763 5764 5769 5774 5778 5779 5781 5785 5789 5793 5795 5796
5759 5754 5749 5746 5741 5737 5732 5727 5726 5726 5724 5720 5719 5719 5720 5721 5721 5722 5723 5725 5725 5727 5730 5733 5736 5740 5742 5743 5745 5746 5746 5751 5754 5758 5760 5762 5766 5770 5772 5774 5778 5778 5779 5783 5786
5753 5749 5745 5741 5736 5733 5728 5723 5721 5721 5718 5718 5716 5715 5716 5716 5718 5718 5719 5721 5722 5724 5728 5731 5731 5734 5738 5740 5740 5742 5742 5747 5751 5755 5757 5757 5759 5762 5765 5771 5772 5773 5774 5776 5776
5747 5743 5739 5735 5734 5728 5725 5721 5718 5717 5716 5715 5712 5711 5712 5712 5713 5715 5715 5718 5720 5721 5723 5725 5726 5727 5731 5735 5738 5738 5741 5744 5745 5748 5752 5751 5753 5756 5761 5766 5766 5767 5768 5768 5769
5741 5736 5734 5729 5727 5723 5719 5716 5714 5714 5713 5711 5710 5709 5708 5709 5709 5709 5710 5713 5715 5716 5720 5722 5721 5724 5727 5731 5732 5735 5738 5740 5744 5744 5747 5749 5752 5756 5761 5762 5760 5760 5760 5761 5763
5732 5729 5725 5723 5720 5718 5715 5712 5709 5710 5708 5709 5707 5706 5705 5704 5704 5705 5705 5708 5710 5713 5717 5718 5720 5722 5722 5725 5726 5728 5731 5735 5737 5740 5741 5748 5747 5747 5754 5753 5752 5754 5755 5756 5757
5724 5722 5718 5715 5714 5712 5710 5707 5706 5703 5703 5704 5703 5702 5702 5702 5701 5701 5703 5703 5705 5708 5712 5713 5715 5717 5716 5719 5720 5721 5724 5727 5730 5730 5735 5740 5736 5739 5745 5745 5745 5745 5746 5746 5747
5716 5713 5711 5708 5705 5705 5704 5703 5700 5699 5697 5697 5697 5698 5699 5699 5700 5700 5699 5699 5700 5702 5704 5707 5710 5711 5711 5714 5716 5716 5719 5721 5721 5724 5730 5731 5731 5733 5735 5736 5737 5737 5737 5737 5739
5704 5703 5702 5699 5698 5697 5697 5695 5694 5693 5694 5694 5693 5692 5692 5693 5695 5694 5696 5697 5697 5698 5699 5700 5704 5704 5706 5708 5712 5712 5713 5714 5717 5720 5721 5724 5725 5726 5725 5726 5728 5729 5730 5730 5730
5696 5694 5692 5690 5689 5689 5689 5688 5687 5688 5689 5688 5688 5688 5687 5689 5690 5690 5690 5691 5690 5693 5694 5697 5700 5699 5703 5704 5706 5708 5708 5708 5709 5710 5712 5717 5718 5717 5716 5717 5718 5719 5720 5721 5721
5685 5683 5682 5680 5680 5681 5681 5680 5679 5680 5681 5681 5682 5682 5683 5683 5686 5685 5686 5687 5687 5687 5688 5689 5694 5697 5697 5697 5699 5700 5699 5699 5702 5700 5703 5708 5711 5710 5709 5708 5708 5708 5709 5711 5707
5671 5672 5670 5670 5672 5671 5673 5673 5672 5672 5673 5674 5675 5676 5676 5678 5680 5681 5681 5681 5682 5683 5683 5685 5687 5688 5691 5689 5688 5690 5690 5691 5690 5693 5696 5697 5702 5702 5700 5700 5698 5699 5697 5698 5698
5656 5658 5657 5659 5661 5662 5664 5666 5664 5664 5666 5668 5668 5670 5671 5672 5674 5674 5674 5674 5677 5677 5678 5678 5679 5681 5682 5683 5680 5679 5682 5683 5682 5683 5684 5687 5691 5696 5693 5694 5689 5688 5688 5687 5687
5643 5645 5645 5648 5648 5652 5655 5656 5656 5652 5658 5661 5662 5664 5666 5666 5667 5668 5667 5667 5670 5670 5670 5671 5671 5673 5674 5672 5671 5671 5672 5674 5674 5674 5678 5679 5681 5684 5684 5683 5680 5680 5680 5680 5680
5630 5633 5634 5637 5637 5641 5644 5646 5646 5647 5651 5654 5656 5658 5660 5659 5659 5660 5661 5660 5662 5662 5662 5663 5664 5664 5666 5665 5661 5663 5664 5665 5665 5669 5669 5676 5671 5673 5673 5674 5674 5673 5672 5675 5673
5618 5622 5624 5626 5626 5629 5632 5635 5635 5639 5643 5646 5649 5651 5653 5652 5654 5653 5653 5653 5652 5655 5655 5655 5656 5655 5655 5655 5653 5652 5654 5659 5660 5660 5661 5664 5665 5662 5663 5666 5666 5668 5667 5665 5663
5606 5609 5612 5615 5616 5618 5622 5626 5629 5632 5635 5638 5640 5643 5644 5646 5645 5645 5646 5646 5646 5647 5647 5648 5648 5647 5648 5645 5644 5644 5649 5646 5649 5650 5651 5652 5653 5656 5657 5658 5658 5658 5655 5653 5652